Printer-friendly version

IAU Minor Planet Center

Minor Planet Center

MPEC 2004-Q36 : 2004 QN5

The following Minor Planet Electronic Circular may be linked-to from your own Web pages, but must not otherwise be redistributed electronically.


Read MPEC 2004-Q35 Read MPEC 2004-Q37


M.P.E.C. 2004-Q36                                Issued 2004 Aug. 23, 15:39 UT

     The Minor Planet Electronic Circulars contain information on unusual
         minor planets and routine data on comets.  They are published
   on behalf of Commission 20 of the International Astronomical Union by the
          Minor Planet Center, Smithsonian Astrophysical Observatory,
                          Cambridge, MA 02138, U.S.A.

                  Supported in part by the Brinson Foundation
             Prepared using the Tamkin Foundation Computer Network

                              MPC@CFA.HARVARD.EDU
          URL http://cfa-www.harvard.edu/iau/mpc.html  ISSN 1523-6714

                                   2004 QN5

Observations:
     K04Q05N* C2004 08 22.53244 21 10 02.82 -21 02 13.6          19.2 R EQ036E12
     K04Q05N  C2004 08 22.54373 21 10 03.23 -21 01 53.7          19.0 R EQ036E12
     K04Q05N  C2004 08 22.55500 21 10 03.64 -21 01 33.4          19.0 R EQ036E12
     K04Q05N  C2004 08 22.56880 21 10 04.21 -21 01 08.1          19.0 R EQ036E12
     K04Q05N  C2004 08 22.59796 21 10 05.33 -21 00 15.6          19.2 R EQ036E12
     K04Q05N  C2004 08 22.59890 21 10 05.35 -21 00 13.5          19.3 R EQ036E12
     K04Q05N  C2004 08 22.59984 21 10 05.37 -21 00 11.9          18.5 R EQ036E12
     K04Q05N  C2004 08 22.60079 21 10 05.43 -21 00 10.9          19.0 R EQ036E12
     K04Q05N  C2004 08 22.76039 21 10 12.17 -20 55 16.4          18.8 R EQ036E12
     K04Q05N  C2004 08 22.76203 21 10 12.19 -20 55 13.3          19.8 R EQ036E12
     K04Q05N  C2004 08 22.76366 21 10 12.35 -20 55 09.9          19.3 R EQ036E12
     K04Q05N  C2004 08 22.76528 21 10 12.43 -20 55 07.6          19.7 R EQ036E12
     K04Q05N  C2004 08 22.92684 21 10 22.93 -20 51 04.1          19.5 V EQ036A13
     K04Q05N  C2004 08 22.92921 21 10 22.98 -20 50 59.7          19.3 V EQ036A13
     K04Q05N  C2004 08 22.93150 21 10 23.15 -20 50 55.2          19.3 V EQ036A13
     K04Q05N  C2004 08 22.93379 21 10 23.19 -20 50 51.5          19.3 V EQ036A13
     K04Q05N  C2004 08 22.93609 21 10 23.29 -20 50 47.1          19.3 V EQ036A13
     K04Q05N  C2004 08 23.42129 21 10 49.73 -20 35 35.8          19.2 R EQ036E12
     K04Q05N  C2004 08 23.42292 21 10 49.80 -20 35 33.2          19.0 R EQ036E12
     K04Q05N  C2004 08 23.42454 21 10 49.88 -20 35 30.4          18.8 R EQ036E12
     K04Q05N  C2004 08 23.42618 21 10 49.91 -20 35 27.4          19.1 R EQ036E12

Observer details:
A13 Observatoire Naef, Marly.  Observer P. Kocher.
E12 Siding Spring Survey.  Observers R. H. McNaught, G. J. Garradd, S. Larson,
    E. Beshore, E. Christensen, R. Hill.  Measurer R. H. McNaught.  0.5-m
    Uppsala Schmidt + CCD.

Orbital elements:
2004 QN5
Epoch 2004 Aug. 23.0 TT = JDT 2453240.5                 MPC
M   3.75702              (2000.0)            P               Q
n   0.32928803     Peri.  341.50706     +0.73655293     +0.67522129
a   2.0769151      Node   335.87996     -0.60770828     +0.63495238
e   0.3976055      Incl.    5.55707     -0.29695189     +0.37538204
P   2.99           H   21.2           G   0.15
From 21 observations 2004 Aug. 22-23.

Ephemeris:
2004 QN5                 a,e,i = 2.08, 0.40, 6                   q = 1.2511
Date    TT    R. A. (2000) Decl.     Delta      r     Elong.  Phase     V
2004 08 23    21 10.44   -20 48.4    0.254    1.256   163.1    13.5    19.5
2004 09 02    21 19.92   -15 58.0    0.276    1.268   157.6    17.6    19.8
2004 09 12    21 31.22   -11 39.0    0.309    1.287   151.7    21.7    20.3
2004 09 22    21 44.36   -08 00.1    0.355    1.313   146.0    25.3    20.7
2004 10 02    21 59.10   -04 58.3    0.411    1.344   140.5    28.3    21.2
2004 10 12    22 15.05   -02 26.5    0.479    1.380   135.3    30.6    21.6

Timothy B. Spahr             (C) Copyright 2004 MPC           M.P.E.C. 2004-Q36

Read MPEC 2004-Q35 Read MPEC 2004-Q37


Our Web policy. Index to the CBAT/MPC/ICQ pages.


Valid HTML 4.01!